カタログに戻る

STARLINK-3150

運用中通信VLEO
NORAD 49452·PAYLOAD·🇺🇸 United States

打ち上げ Nov 13, 2021 から Cape Canaveral Space Force Station

Loading…

次のパス (今後24時間)

TLE

最新Source: CelesTrak SupGP

元期: Sep 14, 2026, 14:01 UTC

1 49452C 21104AW  26257.58451389 -.00030100  00000+0 -96797-3 0  2570
2 49452  53.1579  79.3480 0001131  93.8326 251.6341 15.31715628    16

AllMySatでSTARLINK-3150をリアルタイム追跡

Download on the App Store